FENGYUN 1C DEB, 30112

Orbit data source: Space-Track

FENGYUN 1C DEB, 30112 is space debris in SSO originally from a launch on Mon, 10 May 1999 UTC launched from the Taiyaun Space Center, China (TSC). Fengyun 1C debris stems from the Chinese weather satellite Fengyun-1C, which was intentionally destroyed by a Chinese anti-satellite missile in 2007. This event dramatically increased the amount of space debris, with thousands of trackable fragments posing hazards to satellites and human spaceflight. The Fengyun 1C debris cloud has become a focal point in discussions about space sustainability and the need for international regulations to prevent the creation of new debris.

Loading next visibility...
Identifier
30112, 1999-025RR
Orbit
SSO
Country
Flag of CNCN / PRC
Related business
Manufacturer
Unknown
Mission
Spacecraft
Bus & Motor
Unknown
Mass
Unknown
Launch date (UTC)
1999-05-10 (27 years ago)
Launch vehicle
Unknown
Launch site
Taiyaun Space Center, China (TSC)
Object type
Payload
Rocket body
Debris
Shape & HBR
Unknown shape, 0.1 m
Radar Cross Section
Small (<0.1 m²)

Expand to show TLE details & history
Last TLE update: 15 hours ago

TLE from 15 hours ago
0 FENGYUN 1C DEB
1 30112U 99025RR  25347.21251634  .00002126  00000-0  79652-3 0  9990
2 30112  99.2815 321.1851 0201743 106.3101 256.0366 14.22224135975895
Epoch: 2025-12-13T05:06Z
TLE epoch observation values (Epoch: 2025-12-13T05:06:01.411Z)
Latitude
0.00002°
Longitude
162.53619°
Altitude
858.518 km
Speed
7.404 km/s
True Right ascension
21h 24m 44s
True Declination
0° 00' 00"
Sunlit
Object was in daylight at epoch
Visualization orbit readout
Latitude
Unknown
Longitude
Unknown
Altitude
Unknown
Speed
Unknown
Apparent Right ascension
Unknown
Apparent Declination
Unknown
Sunlit
N/A
Visualization observer readout
Local Sidereal Time
18:14:13
Azimuth
Unknown
Elevation
Unknown
Doppler factor
Unknown
Orbital elements
Apogee altitude
960.14 km
Perigee altitude
669.906 km
Semi-major axis
7,193.16 km
Eccentricity
0.02017
Inclination
99.2815°
RAAN
321.1851°
Arg. of periapsis
106.3101°
True anomaly
253.80724°
Mean anomaly
256.0366°
Eccentric anomaly
254.9205°
Mean motion
3.55765 °/min
Orbital period
101.19 mins
BSTAR
0.00079652
Loading maneuver chart data...
Computing Atmospheric mass density...

Documentation

Showing up to 5 results
|